Search for airport 
image banner adimage banner adimage banner ad
image banner ad

KRIV - March Arb

Located in Riverside, United States

ICAO - RIV, IATA -

Data provided by Airmate  

General information

Coordinates: N33°52'55" W117°15'32"
Elevation is 1536 feet MSL.
Magnetic variation is 14° East
View others Airports in California

Operational data

Special qualification required
Current time UTC:
Current local time:
Weather
METAR: KRIV 260958Z 30004KT 6SM BR BKN130 BKN200 17/15 A3001 RMK AO2A SLPNO ALSTG ESTMD
TAF: TAF KRIV 260404Z 2604/2710 32006KT 9999 BKN200 QNH3000INS BECMG 2604/2605 VRB04KT 9999 SCT200 QNH2998INS BECMG 2611/2612 29004KT 3200 BR OVC002 QNH2998INS BECMG 2616/2617 29004KT 6000 BR BKN007 QNH3002INS BECMG 2617/2618 32006KT 9999 NSW FEW010 FEW120 QNH2999INS BECMG 2620/2621 31009KT 9999 SCT120 QNH2997INS TS OMTNS NE TIL 2701 TEMPO 2621/2701 31012G18KT BECMG 2704/2705 VRB04KT 9999 SKC QNH3000INS BECMG 2709/2710 VRB04KT 8000 BR SCT005 QNH3000INS TX29/2622Z TN16/2613Z
View NOTAMs / SUP AIP / TFR affecting this airport [VIEW]
Communications frequencies: [VIEW]

Runways:

RWY identifierQFULength (ft)Width (ft)SurfaceLDA (ft)
12135°3061100ASPH
30315°3061100ASPH
14149°13302200CONC
32329°13302200CONC

Airport contact information

Address: Riverside United States

Satellite view of KRIV